Погода в Татарбунарах

Украина / Одесская область     45°50′12″N   29°37′00″E
темп.,
°C
ветер,
м/с
пор.,
м/с
влажн.,
%
обл.,
%
осадки,
мм/ч
давл.,
гПа
погр.,
м
16 октября, сб
сб1600:00+12в41073100 0.0 1018305
03:00+13в3872100 0.0 1017271
06:00+12св3672100 0.1 1016214
09:00+12св4875100 0.2 1016386
12:00+13св4780100 0.4 1016459
15:00+12ссв4777100 0.8 1016447
18:00+10с5973100 0.4 1017367
21:00+11ссз5961100 0.9 1017263
17 октября, вс
вс1700:00+11с61062100 0.1 1017296
03:00+11с61064100 0.1 1018302
06:00+11с51063100 0.0 1018381
09:00+11с4967100 0.0 1019351
12:00+14ссв565392 0.0 1020776
15:00+16ссз4549100 0.0 10191135
18:00+14ссз4759100 0.0 1019252
21:00+13с346096 0.0 1020121
18 октября, пн
пн1800:00+11ссз336527 0.0 102141
03:00+10ссз226942 0.0 102122
06:00+9с22745 0.0 102120
09:00+11с23585 0.0 1022126
12:00+14с2245100 0.0 1022702
15:00+16з124152 0.0 10211128
18:00+14ююз22525 0.0 102118
21:00+11ю3470100 0.0 102275
19 октября, вт
вт1900:00+11зюз227295 0.0 102232
03:00+11сз3374100 0.0 102245
06:00+10с366386 0.0 102298
09:00+11ссз61360100 0.0 1024635
12:00+15сз914505 0.0 10251732
15:00+15ссз9122768 0.0 10251768
18:00+12с4728100 0.0 1026186
21:00+9ссз343334 0.0 102862
20 октября, ср
ср2000:00+8ссз33375 0.0 102926
03:00+6сз223918 0.0 103010
06:00+6сз11392 0.0 103010
09:00+8в11345 0.0 103062
12:00+13ю342636 0.0 1029753
15:00+15ю56310 0.0 10271239
18:00+13ю5846100 0.0 1026219
21:00+11ю6125799 0.0 1025368